| time (UTC) | temp C | wind direction | speed KPH | gust KPH | rain 1hr cm | rain 24hr cm | rain mn cm | humidity % | barometer mb |
| 20260506034019 | 17 | 232 | 3.2 | 8.0 | 0.00 | 0.69 | 0.66 | 42 | 1020.3 |
| 20260506033719 | 17 | 232 | 3.2 | 8.0 | 0.00 | 0.69 | 0.66 | 42 | 1020.3 |
| 20260506033409 | 17 | 235 | 3.2 | 8.0 | 0.00 | 0.69 | 0.66 | 42 | 1020.3 |
| 20260506033219 | 17 | 235 | 3.2 | 8.0 | 0.00 | 0.69 | 0.66 | 42 | 1020.3 |
| 20260506033123 | 17 | 237 | 4.8 | 11.3 | 0.00 | 0.69 | 0.66 | 41 | 1020.0 |
| 20260506033042 | 17 | 237 | 4.8 | 11.3 | 0.00 | 0.69 | 0.66 | 41 | 1020.0 |
| 20260506032719 | 17 | 237 | 4.8 | 11.3 | 0.00 | 0.69 | 0.66 | 41 | 1020.0 |
| 20260506032522 | 17 | 237 | 4.8 | 11.3 | 0.00 | 0.69 | 0.66 | 40 | 1020.0 |
| 20260506032219 | 17 | 237 | 4.8 | 11.3 | 0.00 | 0.69 | 0.66 | 40 | 1020.0 |
| 20260506031930 | 17 | 246 | 4.8 | 8.0 | 0.00 | 0.69 | 0.66 | 40 | 1020.0 |
| 20260506031718 | 17 | 246 | 4.8 | 8.0 | 0.00 | 0.69 | 0.66 | 40 | 1020.0 |
| 20260506031507 | 17 | 250 | 3.2 | 8.0 | 0.00 | 0.69 | 0.66 | 40 | 1020.0 |
| 20260506031220 | 17 | 250 | 3.2 | 8.0 | 0.00 | 0.69 | 0.66 | 40 | 1020.0 |
| 20260506030923 | 17 | 247 | 3.2 | 9.7 | 0.00 | 0.69 | 0.66 | 40 | 1020.0 |
| 20260506030719 | 17 | 247 | 3.2 | 9.7 | 0.00 | 0.69 | 0.66 | 40 | 1020.0 |
| 20260506030219 | 17 | 262 | 4.8 | 9.7 | 0.00 | 0.69 | 0.66 | 39 | 1019.6 |
| 20260506025956 | 17 | 268 | 4.8 | 12.9 | 0.00 | 0.69 | 0.66 | 39 | 1019.6 |
| 20260506025719 | 17 | 268 | 4.8 | 12.9 | 0.00 | 0.69 | 0.66 | 39 | 1019.6 |
| 20260506025538 | 18 | 264 | 4.8 | 12.9 | 0.00 | 0.69 | 0.66 | 38 | 1019.6 |
| 20260506025218 | 18 | 264 | 4.8 | 12.9 | 0.00 | 0.69 | 0.66 | 38 | 1019.6 |
| 20260506024934 | 18 | 259 | 4.8 | 9.7 | 0.00 | 0.69 | 0.66 | 38 | 1019.6 |
| 20260506024719 | 18 | 259 | 4.8 | 9.7 | 0.00 | 0.69 | 0.66 | 38 | 1019.6 |
| 20260506024404 | 18 | 255 | 4.8 | 9.7 | 0.00 | 0.69 | 0.66 | 38 | 1019.6 |
| 20260506024219 | 18 | 255 | 4.8 | 9.7 | 0.00 | 0.69 | 0.66 | 38 | 1019.6 |
| 20260506023940 | 18 | 251 | 4.8 | 11.3 | 0.00 | 0.69 | 0.66 | 38 | 1019.6 |
| 20260506023719 | 18 | 251 | 4.8 | 11.3 | 0.00 | 0.69 | 0.66 | 38 | 1019.6 |
| 20260506023438 | 18 | 252 | 6.4 | 11.3 | 0.00 | 0.69 | 0.66 | 37 | 1019.2 |
| 20260506023218 | 18 | 252 | 6.4 | 11.3 | 0.00 | 0.69 | 0.66 | 37 | 1019.2 |
| 20260506023003 | 18 | 265 | 8.0 | 16.1 | 0.00 | 0.69 | 0.66 | 37 | 1019.2 |
| 20260506022720 | 18 | 265 | 8.0 | 16.1 | 0.00 | 0.69 | 0.66 | 37 | 1019.2 |
| 20260506022519 | 18 | 265 | 6.4 | 16.1 | 0.00 | 0.69 | 0.66 | 36 | 1018.8 |
| 20260506022253 | 18 | 265 | 6.4 | 16.1 | 0.00 | 0.69 | 0.66 | 36 | 1018.8 |
| 20260506022218 | 18 | 265 | 6.4 | 16.1 | 0.00 | 0.69 | 0.66 | 36 | 1018.8 |
| 20260506021942 | 18 | 253 | 6.4 | 12.9 | 0.00 | 0.69 | 0.66 | 37 | 1019.2 |
| 20260506021718 | 18 | 253 | 6.4 | 12.9 | 0.00 | 0.69 | 0.66 | 37 | 1019.2 |
| 20260506021441 | 18 | 254 | 8.0 | 16.1 | 0.00 | 0.69 | 0.66 | 36 | 1018.5 |
| 20260506021219 | 18 | 254 | 8.0 | 16.1 | 0.00 | 0.69 | 0.66 | 36 | 1018.5 |
| 20260506021038 | 19 | 254 | 8.0 | 16.1 | 0.00 | 0.69 | 0.66 | 35 | 1018.8 |
| 20260506020718 | 19 | 254 | 8.0 | 16.1 | 0.00 | 0.69 | 0.66 | 35 | 1018.8 |
| 20260506020506 | 19 | 254 | 8.0 | 17.7 | 0.00 | 0.69 | 0.66 | 36 | 1018.5 |
| 20260506020220 | 19 | 254 | 8.0 | 17.7 | 0.00 | 0.69 | 0.66 | 36 | 1018.5 |
| 20260506015943 | 19 | 260 | 9.7 | 19.3 | 0.00 | 0.69 | 0.66 | 35 | 1018.8 |
| 20260506015753 | 19 | 260 | 9.7 | 19.3 | 0.00 | 0.69 | 0.66 | 35 | 1018.8 |
| 20260506015718 | 19 | 260 | 9.7 | 19.3 | 0.00 | 0.69 | 0.66 | 35 | 1018.8 |
| 20260506015611 | 20 | 258 | 11.3 | 24.1 | 0.00 | 0.69 | 0.66 | 35 | 1018.5 |
| 20260506015218 | 20 | 258 | 11.3 | 24.1 | 0.00 | 0.69 | 0.66 | 35 | 1018.5 |
| 20260506015055 | 20 | 257 | 9.7 | 24.1 | 0.00 | 0.69 | 0.66 | 35 | 1018.5 |
| 20260506014718 | 20 | 257 | 9.7 | 24.1 | 0.00 | 0.69 | 0.66 | 35 | 1018.5 |
| 20260506014427 | 20 | 255 | 9.7 | 24.1 | 0.00 | 0.69 | 0.66 | 35 | 1018.5 |
| 20260506014224 | 20 | 255 | 9.7 | 24.1 | 0.00 | 0.69 | 0.66 | 35 | 1018.5 |
| 20260506014133 | 20 | 265 | 11.3 | 24.1 | 0.00 | 0.69 | 0.66 | 35 | 1018.5 |
| 20260506013720 | 20 | 265 | 11.3 | 24.1 | 0.00 | 0.69 | 0.66 | 35 | 1018.5 |
| 20260506013439 | 20 | 285 | 12.9 | 19.3 | 0.00 | 0.69 | 0.66 | 34 | 1018.5 |
| 20260506013219 | 20 | 285 | 12.9 | 19.3 | 0.00 | 0.69 | 0.66 | 34 | 1018.5 |
| 20260506013010 | 21 | 250 | 14.5 | 24.1 | 0.00 | 0.69 | 0.66 | 33 | 1018.5 |
| 20260506012719 | 21 | 250 | 14.5 | 24.1 | 0.00 | 0.69 | 0.66 | 33 | 1018.5 |
| 20260506012519 | 21 | 206 | 16.1 | 24.1 | 0.00 | 0.69 | 0.66 | 33 | 1018.1 |
| 20260506012218 | 21 | 206 | 16.1 | 24.1 | 0.00 | 0.69 | 0.66 | 33 | 1018.1 |
| 20260506011947 | 21 | 227 | 12.9 | 24.1 | 0.00 | 0.69 | 0.66 | 31 | 1017.7 |
| 20260506011719 | 21 | 227 | 12.9 | 24.1 | 0.00 | 0.69 | 0.66 | 31 | 1017.7 |
| 20260506011510 | 21 | 253 | 9.7 | 24.1 | 0.00 | 0.69 | 0.66 | 31 | 1017.7 |
| 20260506011218 | 21 | 253 | 9.7 | 24.1 | 0.00 | 0.69 | 0.66 | 31 | 1017.7 |
| 20260506011015 | 21 | 267 | 9.7 | 24.1 | 0.00 | 0.69 | 0.66 | 32 | 1018.1 |
| 20260506010718 | 21 | 267 | 9.7 | 24.1 | 0.00 | 0.69 | 0.66 | 32 | 1018.1 |
| 20260506010444 | 21 | 262 | 11.3 | 24.1 | 0.00 | 0.69 | 0.66 | 33 | 1018.1 |
| 20260506010218 | 21 | 262 | 11.3 | 24.1 | 0.00 | 0.69 | 0.66 | 33 | 1018.1 |
| 20260506005901 | 21 | 256 | 12.9 | 27.4 | 0.00 | 0.69 | 0.66 | 31 | 1018.1 |
| 20260506005719 | 21 | 256 | 12.9 | 27.4 | 0.00 | 0.69 | 0.66 | 31 | 1018.1 |
| 20260506005502 | 22 | 253 | 12.9 | 27.4 | 0.00 | 0.69 | 0.66 | 30 | 1017.7 |
| 20260506005218 | 22 | 253 | 12.9 | 27.4 | 0.00 | 0.69 | 0.66 | 30 | 1017.7 |
| 20260506004944 | 22 | 252 | 12.9 | 29.0 | 0.00 | 0.69 | 0.66 | 29 | 1017.7 |
| 20260506004719 | 22 | 252 | 12.9 | 29.0 | 0.00 | 0.69 | 0.66 | 29 | 1017.7 |
| 20260506004438 | 22 | 255 | 12.9 | 29.0 | 0.00 | 0.69 | 0.66 | 29 | 1017.7 |
| 20260506004222 | 22 | 255 | 12.9 | 29.0 | 0.00 | 0.69 | 0.66 | 29 | 1017.7 |
| 20260506004000 | 22 | 252 | 12.9 | 30.6 | 0.03 | 0.69 | 0.66 | 29 | 1017.7 |
| 20260506003718 | 22 | 252 | 12.9 | 30.6 | 0.03 | 0.69 | 0.66 | 29 | 1017.7 |
| 20260506003438 | 22 | 255 | 14.5 | 30.6 | 0.03 | 0.69 | 0.66 | 28 | 1017.7 |
| 20260506003218 | 22 | 255 | 14.5 | 30.6 | 0.03 | 0.69 | 0.66 | 28 | 1017.7 |
| 20260506002921 | 22 | 258 | 12.9 | 30.6 | 0.03 | 0.69 | 0.66 | 28 | 1017.7 |
| 20260506002718 | 22 | 258 | 12.9 | 30.6 | 0.03 | 0.69 | 0.66 | 28 | 1017.7 |
| 20260506002512 | 23 | 261 | 12.9 | 37.0 | 0.03 | 0.69 | 0.66 | 27 | 1017.7 |
| 20260506002218 | 23 | 261 | 12.9 | 37.0 | 0.03 | 0.69 | 0.66 | 27 | 1017.7 |
| 20260506001923 | 22 | 257 | 14.5 | 37.0 | 0.03 | 0.69 | 0.66 | 26 | 1017.7 |
| 20260506001718 | 22 | 257 | 14.5 | 37.0 | 0.03 | 0.69 | 0.66 | 26 | 1017.7 |
| 20260506001507 | 22 | 246 | 14.5 | 27.4 | 0.03 | 0.69 | 0.66 | 26 | 1018.1 |
| 20260506001218 | 22 | 246 | 14.5 | 27.4 | 0.03 | 0.69 | 0.66 | 26 | 1018.1 |
| 20260506001003 | 23 | 252 | 12.9 | 27.4 | 0.03 | 0.69 | 0.66 | 25 | 1017.7 |
| 20260506000718 | 23 | 252 | 12.9 | 27.4 | 0.03 | 0.69 | 0.66 | 25 | 1017.7 |
| 20260506000413 | 23 | 275 | 14.5 | 27.4 | 0.03 | 0.69 | 0.66 | 25 | 1017.7 |
| 20260506000219 | 23 | 275 | 14.5 | 27.4 | 0.03 | 0.69 | 0.66 | 25 | 1017.7 |
| 20260505235956 | 23 | 274 | 16.1 | 30.6 | 0.03 | 0.69 | 0.66 | 25 | 1017.3 |
| 20260505235719 | 23 | 274 | 16.1 | 30.6 | 0.03 | 0.69 | 0.66 | 25 | 1017.3 |
| 20260505235549 | 23 | 264 | 14.5 | 30.6 | 0.03 | 0.69 | 0.66 | 25 | 1017.7 |
| 20260505235218 | 23 | 264 | 14.5 | 30.6 | 0.03 | 0.69 | 0.66 | 25 | 1017.7 |
| 20260505234927 | 23 | 260 | 14.5 | 35.4 | 0.03 | 0.69 | 0.66 | 22 | 1017.7 |
| 20260505234718 | 23 | 260 | 14.5 | 35.4 | 0.03 | 0.69 | 0.66 | 22 | 1017.7 |
| 20260505234507 | 23 | 250 | 16.1 | 35.4 | 0.03 | 0.69 | 0.66 | 22 | 1017.7 |
| 20260505234220 | 23 | 250 | 16.1 | 35.4 | 0.03 | 0.69 | 0.66 | 22 | 1017.7 |
| 20260505233956 | 23 | 249 | 16.1 | 29.0 | 0.00 | 0.66 | 0.64 | 25 | 1017.3 |
| 20260505233720 | 23 | 249 | 16.1 | 29.0 | 0.00 | 0.66 | 0.64 | 25 | 1017.3 |
| 20260505233441 | 23 | 263 | 17.7 | 30.6 | 0.00 | 0.66 | 0.64 | 24 | 1017.3 |
| 20260505233219 | 23 | 263 | 17.7 | 30.6 | 0.00 | 0.66 | 0.64 | 24 | 1017.3 |
| 20260505233035 | 23 | 262 | 17.7 | 38.6 | 0.00 | 0.66 | 0.64 | 23 | 1017.7 |
| 20260505232718 | 23 | 262 | 17.7 | 38.6 | 0.00 | 0.66 | 0.64 | 23 | 1017.7 |
| 20260505232551 | 23 | 257 | 16.1 | 38.6 | 0.00 | 0.66 | 0.64 | 23 | 1017.3 |
| 20260505232219 | 23 | 257 | 16.1 | 38.6 | 0.00 | 0.66 | 0.64 | 23 | 1017.3 |
| 20260505232018 | 23 | 254 | 14.5 | 27.4 | 0.00 | 0.66 | 0.64 | 24 | 1017.7 |
| 20260505231720 | 23 | 254 | 14.5 | 27.4 | 0.00 | 0.66 | 0.64 | 24 | 1017.7 |
| 20260505231458 | 23 | 250 | 16.1 | 32.2 | 0.00 | 0.66 | 0.64 | 25 | 1017.3 |
| 20260505231218 | 23 | 250 | 16.1 | 32.2 | 0.00 | 0.66 | 0.64 | 25 | 1017.3 |
| 20260505230933 | 23 | 256 | 16.1 | 32.2 | 0.00 | 0.66 | 0.64 | 26 | 1017.3 |
| 20260505230719 | 23 | 256 | 16.1 | 32.2 | 0.00 | 0.66 | 0.64 | 26 | 1017.3 |
| 20260505230438 | 23 | 256 | 16.1 | 29.0 | 0.00 | 0.66 | 0.64 | 27 | 1017.3 |
| 20260505230220 | 23 | 256 | 16.1 | 29.0 | 0.00 | 0.66 | 0.64 | 27 | 1017.3 |
| 20260505230009 | 23 | 251 | 14.5 | 29.0 | 0.00 | 0.66 | 0.64 | 25 | 1017.3 |
| 20260505225718 | 23 | 251 | 14.5 | 29.0 | 0.00 | 0.66 | 0.64 | 25 | 1017.3 |
| 20260505225339 | 23 | 256 | 16.1 | 25.7 | 0.00 | 0.66 | 0.64 | 28 | 1017.3 |
| 20260505225218 | 23 | 256 | 16.1 | 25.7 | 0.00 | 0.66 | 0.64 | 28 | 1017.3 |
| 20260505224933 | 23 | 262 | 14.5 | 30.6 | 0.00 | 0.66 | 0.64 | 29 | 1017.7 |
| 20260505224718 | 23 | 262 | 14.5 | 30.6 | 0.00 | 0.66 | 0.64 | 29 | 1017.7 |
| 20260505224500 | 23 | 259 | 16.1 | 30.6 | 0.00 | 0.66 | 0.64 | 29 | 1017.7 |
| 20260505224218 | 23 | 259 | 16.1 | 30.6 | 0.00 | 0.66 | 0.64 | 29 | 1017.7 |
| 20260505223902 | 23 | 257 | 16.1 | 27.4 | 0.00 | 0.66 | 0.64 | 30 | 1017.7 |
| 20260505223719 | 23 | 257 | 16.1 | 27.4 | 0.00 | 0.66 | 0.64 | 30 | 1017.7 |
| 20260505223218 | 24 | 258 | 14.5 | 24.1 | 0.00 | 0.66 | 0.64 | 30 | 1017.7 |
| 20260505223013 | 24 | 265 | 12.9 | 30.6 | 0.00 | 0.66 | 0.64 | 31 | 1017.3 |
| 20260505222718 | 24 | 265 | 12.9 | 30.6 | 0.00 | 0.66 | 0.64 | 31 | 1017.3 |
| 20260505222409 | 24 | 293 | 12.9 | 30.6 | 0.00 | 0.66 | 0.64 | 30 | 1017.7 |
| 20260505222219 | 24 | 293 | 12.9 | 30.6 | 0.00 | 0.66 | 0.64 | 30 | 1017.7 |
| 20260505222000 | 23 | 299 | 12.9 | 24.1 | 0.00 | 0.66 | 0.64 | 30 | 1017.7 |
| 20260505221718 | 23 | 299 | 12.9 | 24.1 | 0.00 | 0.66 | 0.64 | 30 | 1017.7 |
| 20260505221416 | 23 | 258 | 14.5 | 27.4 | 0.00 | 0.66 | 0.64 | 30 | 1017.7 |
| 20260505221218 | 23 | 258 | 14.5 | 27.4 | 0.00 | 0.66 | 0.64 | 30 | 1017.7 |
| 20260505220915 | 23 | 244 | 14.5 | 35.4 | 0.00 | 0.66 | 0.64 | 30 | 1017.7 |
| 20260505220719 | 23 | 244 | 14.5 | 35.4 | 0.00 | 0.66 | 0.64 | 30 | 1017.7 |
| 20260505220324 | 23 | 241 | 14.5 | 35.4 | 0.00 | 0.66 | 0.64 | 29 | 1018.1 |
| 20260505220218 | 23 | 241 | 14.5 | 35.4 | 0.00 | 0.66 | 0.64 | 29 | 1018.1 |
| 20260505215721 | 23 | 226 | 11.3 | 30.6 | 0.00 | 0.66 | 0.64 | 31 | 1017.7 |
| 20260505215218 | 24 | 231 | 9.7 | 17.7 | 0.00 | 0.66 | 0.64 | 32 | 1017.7 |
| 20260505214718 | 24 | 249 | 12.9 | 29.0 | 0.00 | 0.66 | 0.64 | 32 | 1017.7 |
| 20260505214325 | 24 | 251 | 16.1 | 30.6 | 0.00 | 0.66 | 0.64 | 30 | 1018.1 |
| 20260505214219 | 24 | 251 | 16.1 | 30.6 | 0.00 | 0.66 | 0.64 | 30 | 1018.1 |
| 20260505213823 | 24 | 238 | 19.3 | 37.0 | 0.00 | 0.66 | 0.64 | 31 | 1018.1 |
| 20260505213718 | 24 | 238 | 19.3 | 37.0 | 0.00 | 0.66 | 0.64 | 31 | 1018.1 |
| 20260505213219 | 24 | 249 | 19.3 | 37.0 | 0.00 | 0.66 | 0.64 | 31 | 1018.1 |
| 20260505212718 | 24 | 256 | 17.7 | 37.0 | 0.00 | 0.66 | 0.64 | 31 | 1017.7 |
| 20260505212219 | 23 | 234 | 16.1 | 30.6 | 0.38 | 0.66 | 0.64 | 32 | 1018.1 |
| 20260505211721 | 25 | 219 | 12.9 | 30.6 | 0.38 | 0.66 | 0.64 | 30 | 1018.5 |
| 20260505211218 | 23 | 128 | 11.3 | 16.1 | 0.38 | 0.66 | 0.64 | 31 | 1018.5 |
| 20260505210718 | 24 | 100 | 12.9 | 24.1 | 0.38 | 0.66 | 0.64 | 32 | 1018.5 |
| 20260505210220 | 24 | 230 | 16.1 | 30.6 | 0.38 | 0.66 | 0.64 | 32 | 1018.5 |
| 20260505205807 | 24 | 213 | 14.5 | 30.6 | 0.38 | 0.66 | 0.64 | 31 | 1018.5 |
| 20260505205719 | 24 | 213 | 14.5 | 30.6 | 0.38 | 0.66 | 0.64 | 31 | 1018.5 |
| 20260505205313 | 24 | 214 | 16.1 | 30.6 | 0.38 | 0.66 | 0.64 | 31 | 1018.1 |
| 20260505205219 | 24 | 214 | 16.1 | 30.6 | 0.38 | 0.66 | 0.64 | 31 | 1018.1 |
| 20260505204824 | 24 | 239 | 17.7 | 37.0 | 0.38 | 0.66 | 0.64 | 31 | 1018.5 |
| 20260505204720 | 24 | 239 | 17.7 | 37.0 | 0.38 | 0.66 | 0.64 | 31 | 1018.5 |
| 20260505204220 | 23 | 240 | 16.1 | 37.0 | 0.38 | 0.66 | 0.64 | 31 | 1018.5 |
| 20260505203817 | 23 | 238 | 12.9 | 30.6 | 0.38 | 0.66 | 0.64 | 35 | 1018.5 |
| 20260505203720 | 23 | 238 | 12.9 | 30.6 | 0.38 | 0.66 | 0.64 | 35 | 1018.5 |
| 20260505203316 | 23 | 244 | 16.1 | 30.6 | 0.38 | 0.66 | 0.64 | 33 | 1018.5 |
| 20260505203219 | 23 | 244 | 16.1 | 30.6 | 0.38 | 0.66 | 0.64 | 33 | 1018.5 |
| 20260505202934 | 23 | 246 | 16.1 | 25.7 | 0.38 | 0.66 | 0.64 | 35 | 1018.5 |
| 20260505202722 | 23 | 246 | 16.1 | 25.7 | 0.38 | 0.66 | 0.64 | 35 | 1018.5 |
| 20260505202343 | 23 | 236 | 16.1 | 38.6 | 0.00 | 0.28 | 0.25 | 35 | 1018.5 |
| 20260505202220 | 23 | 236 | 16.1 | 38.6 | 0.00 | 0.28 | 0.25 | 35 | 1018.5 |
| 20260505202000 | 23 | 235 | 16.1 | 38.6 | 0.00 | 0.28 | 0.25 | 37 | 1018.5 |
| 20260505201720 | 23 | 235 | 16.1 | 38.6 | 0.00 | 0.28 | 0.25 | 37 | 1018.5 |
| 20260505201319 | 23 | 236 | 16.1 | 37.0 | 0.00 | 0.28 | 0.25 | 37 | 1018.5 |
| 20260505201219 | 23 | 236 | 16.1 | 37.0 | 0.00 | 0.28 | 0.25 | 37 | 1018.5 |
| 20260505200907 | 23 | 234 | 12.9 | 29.0 | 0.00 | 0.28 | 0.25 | 35 | 1018.8 |
| 20260505200719 | 23 | 234 | 12.9 | 29.0 | 0.00 | 0.28 | 0.25 | 35 | 1018.8 |
| 20260505200424 | 23 | 238 | 9.7 | 19.3 | 0.00 | 0.28 | 0.25 | 37 | 1019.2 |
| 20260505200219 | 23 | 238 | 9.7 | 19.3 | 0.00 | 0.28 | 0.25 | 37 | 1019.2 |
| 20260505195933 | 23 | 221 | 11.3 | 17.7 | 0.00 | 0.28 | 0.25 | 38 | 1018.8 |
| 20260505195719 | 23 | 221 | 11.3 | 17.7 | 0.00 | 0.28 | 0.25 | 38 | 1018.8 |
| 20260505195525 | 23 | 201 | 11.3 | 17.7 | 0.00 | 0.28 | 0.25 | 38 | 1018.8 |
| 20260505195219 | 23 | 201 | 11.3 | 17.7 | 0.00 | 0.28 | 0.25 | 38 | 1018.8 |
| 20260505195056 | 23 | 228 | 14.5 | 25.7 | 0.00 | 0.28 | 0.25 | 36 | 1018.8 |
| 20260505194719 | 23 | 228 | 14.5 | 25.7 | 0.00 | 0.28 | 0.25 | 36 | 1018.8 |
| 20260505194433 | 23 | 255 | 17.7 | 25.7 | 0.00 | 0.28 | 0.25 | 37 | 1018.8 |
| 20260505194219 | 23 | 255 | 17.7 | 25.7 | 0.00 | 0.28 | 0.25 | 37 | 1018.8 |
| 20260505194016 | 23 | 242 | 16.1 | 25.7 | 0.00 | 0.28 | 0.25 | 37 | 1018.8 |
| 20260505193719 | 23 | 242 | 16.1 | 25.7 | 0.00 | 0.28 | 0.25 | 37 | 1018.8 |
| 20260505193439 | 23 | 225 | 16.1 | 24.1 | 0.00 | 0.28 | 0.25 | 38 | 1018.5 |
| 20260505193219 | 23 | 225 | 16.1 | 24.1 | 0.00 | 0.28 | 0.25 | 38 | 1018.5 |
| 20260505193025 | 23 | 221 | 16.1 | 19.3 | 0.00 | 0.28 | 0.25 | 38 | 1018.8 |
| 20260505192720 | 23 | 221 | 16.1 | 19.3 | 0.00 | 0.28 | 0.25 | 38 | 1018.8 |
| 20260505192503 | 23 | 201 | 16.1 | 24.1 | 0.00 | 0.28 | 0.25 | 38 | 1018.5 |
| 20260505192219 | 23 | 201 | 16.1 | 24.1 | 0.00 | 0.28 | 0.25 | 38 | 1018.5 |
| 20260505192046 | 22 | 218 | 17.7 | 33.8 | 0.00 | 0.28 | 0.25 | 39 | 1019.2 |
| 20260505191720 | 22 | 218 | 17.7 | 33.8 | 0.00 | 0.28 | 0.25 | 39 | 1019.2 |
| 20260505191448 | 22 | 243 | 16.1 | 33.8 | 0.00 | 0.28 | 0.25 | 38 | 1018.8 |
| 20260505191220 | 22 | 243 | 16.1 | 33.8 | 0.00 | 0.28 | 0.25 | 38 | 1018.8 |
| 20260505191017 | 22 | 242 | 14.5 | 32.2 | 0.00 | 0.28 | 0.25 | 39 | 1019.2 |
| 20260505190719 | 22 | 242 | 14.5 | 32.2 | 0.00 | 0.28 | 0.25 | 39 | 1019.2 |
| 20260505190455 | 22 | 240 | 12.9 | 32.2 | 0.00 | 0.28 | 0.25 | 41 | 1019.2 |
| 20260505190219 | 22 | 240 | 12.9 | 32.2 | 0.00 | 0.28 | 0.25 | 41 | 1019.2 |
| 20260505190009 | 23 | 224 | 14.5 | 30.6 | 0.00 | 0.28 | 0.25 | 41 | 1019.2 |
| 20260505185720 | 23 | 224 | 14.5 | 30.6 | 0.00 | 0.28 | 0.25 | 41 | 1019.2 |
| 20260505185616 | 22 | 232 | 16.1 | 38.6 | 0.00 | 0.28 | 0.25 | 42 | 1019.6 |
| 20260505185220 | 22 | 232 | 16.1 | 38.6 | 0.00 | 0.28 | 0.25 | 42 | 1019.6 |
| 20260505185035 | 22 | 247 | 14.5 | 38.6 | 0.00 | 0.28 | 0.25 | 42 | 1019.2 |
| 20260505184719 | 22 | 247 | 14.5 | 38.6 | 0.00 | 0.28 | 0.25 | 42 | 1019.2 |
| 20260505184517 | 22 | 243 | 11.3 | 27.4 | 0.00 | 0.28 | 0.25 | 45 | 1019.6 |
| 20260505184220 | 22 | 243 | 11.3 | 27.4 | 0.00 | 0.28 | 0.25 | 45 | 1019.6 |
| 20260505183952 | 21 | 246 | 11.3 | 27.4 | 0.00 | 0.28 | 0.25 | 46 | 1019.6 |
| 20260505183720 | 21 | 246 | 11.3 | 27.4 | 0.00 | 0.28 | 0.25 | 46 | 1019.6 |
| 20260505183436 | 21 | 257 | 11.3 | 19.3 | 0.00 | 0.28 | 0.25 | 46 | 1019.6 |
| 20260505183219 | 21 | 257 | 11.3 | 19.3 | 0.00 | 0.28 | 0.25 | 46 | 1019.6 |
| 20260505183006 | 21 | 263 | 12.9 | 24.1 | 0.00 | 0.28 | 0.25 | 47 | 1019.6 |
| 20260505182719 | 21 | 263 | 12.9 | 24.1 | 0.00 | 0.28 | 0.25 | 47 | 1019.6 |
| 20260505182510 | 21 | 256 | 11.3 | 24.1 | 0.00 | 0.28 | 0.25 | 48 | 1019.6 |
| 20260505182219 | 21 | 256 | 11.3 | 24.1 | 0.00 | 0.28 | 0.25 | 48 | 1019.6 |
| 20260505181918 | 21 | 242 | 9.7 | 22.5 | 0.00 | 0.28 | 0.25 | 47 | 1019.6 |
| 20260505181719 | 21 | 242 | 9.7 | 22.5 | 0.00 | 0.28 | 0.25 | 47 | 1019.6 |
| 20260505181458 | 21 | 264 | 8.0 | 19.3 | 0.00 | 0.28 | 0.25 | 47 | 1019.6 |
| 20260505181219 | 21 | 264 | 8.0 | 19.3 | 0.00 | 0.28 | 0.25 | 47 | 1019.6 |
| 20260505180719 | 21 | 286 | 6.4 | 14.5 | 0.00 | 0.28 | 0.25 | 55 | 1020.0 |
| 20260505180434 | 21 | 284 | 8.0 | 17.7 | 0.00 | 0.28 | 0.25 | 51 | 1019.6 |
| 20260505180219 | 21 | 284 | 8.0 | 17.7 | 0.00 | 0.28 | 0.25 | 51 | 1019.6 |
| 20260505175933 | 20 | 285 | 8.0 | 17.7 | 0.00 | 0.28 | 0.25 | 54 | 1019.6 |
| 20260505175719 | 20 | 285 | 8.0 | 17.7 | 0.00 | 0.28 | 0.25 | 54 | 1019.6 |
| 20260505175629 | 20 | 289 | 9.7 | 14.5 | 0.00 | 0.28 | 0.25 | 53 | 1019.6 |
| 20260505175553 | 20 | 289 | 9.7 | 14.5 | 0.00 | 0.28 | 0.25 | 53 | 1019.6 |
| 20260505175219 | 20 | 289 | 9.7 | 14.5 | 0.00 | 0.28 | 0.25 | 53 | 1019.6 |
| 20260505175016 | 20 | 274 | 9.7 | 14.5 | 0.00 | 0.28 | 0.25 | 54 | 1020.0 |
| 20260505174719 | 20 | 274 | 9.7 | 14.5 | 0.00 | 0.28 | 0.25 | 54 | 1020.0 |
| 20260505174523 | 20 | 249 | 8.0 | 14.5 | 0.00 | 0.28 | 0.25 | 55 | 1020.0 |
| 20260505174219 | 20 | 249 | 8.0 | 14.5 | 0.00 | 0.28 | 0.25 | 55 | 1020.0 |
| 20260505174035 | 20 | 283 | 6.4 | 12.9 | 0.00 | 0.28 | 0.25 | 55 | 1020.0 |
| 20260505173720 | 20 | 283 | 6.4 | 12.9 | 0.00 | 0.28 | 0.25 | 55 | 1020.0 |
| 20260505173439 | 20 | 269 | 6.4 | 12.9 | 0.03 | 0.28 | 0.25 | 54 | 1019.6 |
| 20260505173220 | 20 | 269 | 6.4 | 12.9 | 0.03 | 0.28 | 0.25 | 54 | 1019.6 |
| 20260505172933 | 20 | 270 | 6.4 | 12.9 | 0.03 | 0.28 | 0.25 | 55 | 1019.6 |
| 20260505172719 | 20 | 270 | 6.4 | 12.9 | 0.03 | 0.28 | 0.25 | 55 | 1019.6 |
| 20260505172551 | 20 | 274 | 6.4 | 12.9 | 0.03 | 0.28 | 0.25 | 57 | 1020.0 |
| 20260505172220 | 20 | 274 | 6.4 | 12.9 | 0.03 | 0.28 | 0.25 | 57 | 1020.0 |
| 20260505171934 | 20 | 248 | 4.8 | 9.7 | 0.03 | 0.28 | 0.25 | 59 | 1020.0 |
| 20260505171719 | 20 | 248 | 4.8 | 9.7 | 0.03 | 0.28 | 0.25 | 59 | 1020.0 |
| 20260505171219 | 19 | 276 | 4.8 | 11.3 | 0.03 | 0.28 | 0.25 | 58 | 1020.0 |
| 20260505170950 | 20 | 313 | 3.2 | 11.3 | 0.03 | 0.28 | 0.25 | 58 | 1020.0 |
| 20260505170719 | 20 | 313 | 3.2 | 11.3 | 0.03 | 0.28 | 0.25 | 58 | 1020.0 |
| 20260505170435 | 20 | 343 | 1.6 | 6.4 | 0.03 | 0.28 | 0.25 | 59 | 1020.0 |
| 20260505170218 | 20 | 343 | 1.6 | 6.4 | 0.03 | 0.28 | 0.25 | 59 | 1020.0 |
| 20260505165956 | 20 | 308 | 3.2 | 9.7 | 0.03 | 0.28 | 0.25 | 58 | 1020.0 |
| 20260505165720 | 20 | 308 | 3.2 | 9.7 | 0.03 | 0.28 | 0.25 | 58 | 1020.0 |
| 20260505165220 | 20 | 295 | 4.8 | 12.9 | 0.03 | 0.28 | 0.25 | 63 | 1020.3 |
| 20260505164941 | 18 | 289 | 4.8 | 12.9 | 0.03 | 0.28 | 0.25 | 62 | 1020.0 |
| 20260505164718 | 18 | 289 | 4.8 | 12.9 | 0.03 | 0.28 | 0.25 | 62 | 1020.0 |
| 20260505164442 | 19 | 244 | 4.8 | 9.7 | 0.03 | 0.28 | 0.25 | 64 | 1020.0 |
| 20260505164221 | 19 | 244 | 4.8 | 9.7 | 0.03 | 0.28 | 0.25 | 64 | 1020.0 |
| 20260505164033 | 19 | 234 | 4.8 | 9.7 | 0.03 | 0.28 | 0.25 | 64 | 1020.3 |
| 20260505163718 | 19 | 234 | 4.8 | 9.7 | 0.03 | 0.28 | 0.25 | 64 | 1020.3 |
| 20260505163431 | 19 | 243 | 4.8 | 9.7 | 0.00 | 0.25 | 0.23 | 61 | 1020.3 |
| 20260505163219 | 19 | 243 | 4.8 | 9.7 | 0.00 | 0.25 | 0.23 | 61 | 1020.3 |
| 20260505162931 | 19 | 229 | 3.2 | 8.0 | 0.00 | 0.25 | 0.23 | 62 | 1020.3 |
| 20260505162719 | 19 | 229 | 3.2 | 8.0 | 0.00 | 0.25 | 0.23 | 62 | 1020.3 |
| 20260505162533 | 18 | 231 | 3.2 | 8.0 | 0.00 | 0.25 | 0.23 | 62 | 1020.3 |
| 20260505162220 | 18 | 231 | 3.2 | 8.0 | 0.00 | 0.25 | 0.23 | 62 | 1020.3 |
| 20260505162150 | 18 | 210 | 3.2 | 9.7 | 0.00 | 0.25 | 0.23 | 62 | 1020.0 |
| 20260505161719 | 18 | 210 | 3.2 | 9.7 | 0.00 | 0.25 | 0.23 | 62 | 1020.0 |
| 20260505161637 | 18 | 216 | 3.2 | 9.7 | 0.00 | 0.25 | 0.23 | 66 | 1020.0 |
| 20260505161220 | 18 | 216 | 3.2 | 9.7 | 0.00 | 0.25 | 0.23 | 66 | 1020.0 |
| 20260505161025 | 18 | 210 | 3.2 | 6.4 | 0.00 | 0.25 | 0.23 | 63 | 1020.3 |
| 20260505160719 | 18 | 210 | 3.2 | 6.4 | 0.00 | 0.25 | 0.23 | 63 | 1020.3 |
| 20260505160531 | 18 | 223 | 1.6 | 6.4 | 0.00 | 0.25 | 0.23 | 66 | 1020.0 |
| 20260505160219 | 18 | 223 | 1.6 | 6.4 | 0.00 | 0.25 | 0.23 | 66 | 1020.0 |
| 20260505153219 | 16 | 295 | 1.6 | 6.4 | 0.00 | 0.25 | 0.23 | 76 | 1020.3 |
| 20260505153025 | 16 | 288 | 1.6 | 6.4 | 0.00 | 0.25 | 0.23 | 75 | 1020.3 |
| 20260505152720 | 16 | 288 | 1.6 | 6.4 | 0.00 | 0.25 | 0.23 | 75 | 1020.3 |
| 20260505152529 | 16 | 284 | 1.6 | 6.4 | 0.00 | 0.25 | 0.23 | 75 | 1020.0 |
| 20260505152219 | 16 | 284 | 1.6 | 6.4 | 0.00 | 0.25 | 0.23 | 75 | 1020.0 |
| 20260505152025 | 17 | 355 | 1.6 | 4.8 | 0.00 | 0.25 | 0.23 | 74 | 1020.0 |
| 20260505151718 | 17 | 355 | 1.6 | 4.8 | 0.00 | 0.25 | 0.23 | 74 | 1020.0 |
| 20260505151409 | 17 | 50 | 0.0 | 3.2 | 0.00 | 0.25 | 0.23 | 80 | 1020.0 |
| 20260505151218 | 17 | 50 | 0.0 | 3.2 | 0.00 | 0.25 | 0.23 | 80 | 1020.0 |
| 20260505150719 | 16 | 28 | 0.0 | 3.2 | 0.00 | 0.25 | 0.23 | 82 | 1020.3 |
| 20260505150603 | 15 | 9 | 0.0 | 1.6 | 0.00 | 0.25 | 0.23 | 83 | 1020.3 |
| 20260505150218 | 15 | 9 | 0.0 | 1.6 | 0.00 | 0.25 | 0.23 | 83 | 1020.3 |
| 20260505140441 | 13 | 114 | 0.0 | 3.2 | 0.00 | 0.25 | 0.23 | 94 | 1019.6 |
| 20260505140219 | 13 | 114 | 0.0 | 3.2 | 0.00 | 0.25 | 0.23 | 94 | 1019.6 |
| 20260505130218 | 13 | 53 | 0.0 | 1.6 | 0.00 | 0.25 | 0.23 | 95 | 1019.2 |
| 20260505130115 | 13 | 357 | 0.0 | 3.2 | 0.00 | 0.25 | 0.23 | 95 | 1018.8 |
| 20260505124720 | 13 | 342 | 0.0 | 4.8 | 0.00 | 0.25 | 0.23 | 95 | 1018.5 |
| 20260505124444 | 13 | 339 | 1.6 | 6.4 | 0.00 | 0.25 | 0.23 | 95 | 1018.8 |
| 20260505124223 | 13 | 339 | 1.6 | 6.4 | 0.00 | 0.25 | 0.23 | 95 | 1018.8 |
| 20260505123953 | 13 | 333 | 1.6 | 6.4 | 0.00 | 0.25 | 0.23 | 95 | 1018.5 |
| 20260505123718 | 13 | 333 | 1.6 | 6.4 | 0.00 | 0.25 | 0.23 | 95 | 1018.5 |
| 20260505123439 | 13 | 333 | 1.6 | 4.8 | 0.00 | 0.25 | 0.23 | 95 | 1018.8 |
| 20260505123219 | 13 | 333 | 1.6 | 4.8 | 0.00 | 0.25 | 0.23 | 95 | 1018.8 |
| 20260505123025 | 13 | 349 | 0.0 | 3.2 | 0.00 | 0.25 | 0.23 | 95 | 1018.8 |
| 20260505122719 | 13 | 349 | 0.0 | 3.2 | 0.00 | 0.25 | 0.23 | 95 | 1018.8 |
| 20260505122505 | 13 | 355 | 0.0 | 3.2 | 0.00 | 0.25 | 0.23 | 95 | 1018.8 |
| 20260505122219 | 13 | 355 | 0.0 | 3.2 | 0.00 | 0.25 | 0.23 | 95 | 1018.8 |
| 20260505122139 | 13 | 338 | 1.6 | 6.4 | 0.00 | 0.25 | 0.23 | 95 | 1018.8 |
| 20260505121719 | 13 | 338 | 1.6 | 6.4 | 0.00 | 0.25 | 0.23 | 95 | 1018.8 |
| 20260505121543 | 13 | 297 | 3.2 | 6.4 | 0.00 | 0.25 | 0.23 | 95 | 1018.8 |
| 20260505121218 | 13 | 297 | 3.2 | 6.4 | 0.00 | 0.25 | 0.23 | 95 | 1018.8 |
| 20260505121119 | 13 | 269 | 3.2 | 6.4 | 0.00 | 0.25 | 0.23 | 95 | 1018.8 |
| 20260505120718 | 13 | 269 | 3.2 | 6.4 | 0.00 | 0.25 | 0.23 | 95 | 1018.8 |
| 20260505120436 | 13 | 277 | 3.2 | 6.4 | 0.00 | 0.25 | 0.23 | 95 | 1018.8 |
| 20260505120218 | 13 | 277 | 3.2 | 6.4 | 0.00 | 0.25 | 0.23 | 95 | 1018.8 |
| 20260505120010 | 13 | 288 | 1.6 | 4.8 | 0.00 | 0.25 | 0.23 | 95 | 1018.5 |
| 20260505115718 | 13 | 288 | 1.6 | 4.8 | 0.00 | 0.25 | 0.23 | 95 | 1018.5 |
| 20260505115612 | 13 | 284 | 1.6 | 4.8 | 0.00 | 0.25 | 0.23 | 95 | 1018.5 |
| 20260505115221 | 13 | 284 | 1.6 | 4.8 | 0.00 | 0.25 | 0.23 | 95 | 1018.1 |
| 20260505115218 | 13 | 284 | 1.6 | 4.8 | 0.00 | 0.25 | 0.23 | 95 | 1018.5 |
| 20260505114718 | 13 | 284 | 1.6 | 4.8 | 0.00 | 0.25 | 0.23 | 95 | 1018.1 |
| 20260505114502 | 13 | 275 | 0.0 | 3.2 | 0.00 | 0.25 | 0.23 | 95 | 1018.5 |
| 20260505114223 | 13 | 275 | 0.0 | 3.2 | 0.00 | 0.25 | 0.23 | 95 | 1018.5 |
| 20260505114109 | 13 | 47 | 0.0 | 3.2 | 0.00 | 0.25 | 0.23 | 95 | 1018.1 |
| 20260505113718 | 13 | 47 | 0.0 | 3.2 | 0.00 | 0.25 | 0.23 | 95 | 1018.1 |
| 20260505113440 | 13 | 47 | 1.6 | 3.2 | 0.00 | 0.25 | 0.23 | 95 | 1018.1 |
| 20260505113218 | 13 | 47 | 1.6 | 3.2 | 0.00 | 0.25 | 0.23 | 95 | 1018.1 |
| 20260505113037 | 13 | 46 | 0.0 | 3.2 | 0.00 | 0.25 | 0.23 | 94 | 1018.1 |
| 20260505112718 | 13 | 46 | 0.0 | 3.2 | 0.00 | 0.25 | 0.23 | 94 | 1018.1 |
| 20260505112539 | 13 | 51 | 1.6 | 3.2 | 0.00 | 0.25 | 0.23 | 94 | 1018.1 |
| 20260505112220 | 13 | 52 | 0.0 | 3.2 | 0.00 | 0.25 | 0.23 | 94 | 1018.5 |
| 20260505111718 | 13 | 52 | 0.0 | 3.2 | 0.00 | 0.25 | 0.23 | 94 | 1018.5 |
| 20260505111521 | 13 | 336 | 0.0 | 3.2 | 0.00 | 0.25 | 0.23 | 94 | 1018.8 |
| 20260505111218 | 13 | 336 | 0.0 | 3.2 | 0.00 | 0.25 | 0.23 | 94 | 1018.8 |
| 20260505111032 | 13 | 357 | 0.0 | 3.2 | 0.00 | 0.25 | 0.23 | 95 | 1018.8 |
| 20260505110718 | 13 | 357 | 0.0 | 3.2 | 0.00 | 0.25 | 0.23 | 95 | 1018.8 |
| 20260505110424 | 13 | 302 | 1.6 | 4.8 | 0.00 | 0.25 | 0.23 | 94 | 1018.8 |
| 20260505110220 | 13 | 302 | 1.6 | 4.8 | 0.00 | 0.25 | 0.23 | 94 | 1018.8 |
| 20260505110157 | 13 | 285 | 1.6 | 4.8 | 0.00 | 0.25 | 0.23 | 94 | 1018.8 |
| 20260505102219 | 13 | 51 | 3.2 | 8.0 | 0.00 | 0.25 | 0.23 | 94 | 1018.8 |
| 20260505102147 | 13 | 45 | 1.6 | 8.0 | 0.00 | 0.25 | 0.23 | 94 | 1018.8 |
| 20260505101817 | 13 | 45 | 1.6 | 8.0 | 0.00 | 0.25 | 0.23 | 94 | 1018.8 |
| 20260505101719 | 13 | 45 | 1.6 | 8.0 | 0.00 | 0.25 | 0.23 | 94 | 1018.8 |
| 20260505101636 | 13 | 349 | 0.0 | 3.2 | 0.00 | 0.25 | 0.23 | 94 | 1019.6 |
| 20260505101219 | 13 | 349 | 0.0 | 3.2 | 0.00 | 0.25 | 0.23 | 94 | 1019.6 |
| 20260505101110 | 13 | 349 | 0.0 | 3.2 | 0.00 | 0.25 | 0.23 | 94 | 1019.6 |
| 20260505100719 | 13 | 349 | 0.0 | 3.2 | 0.00 | 0.25 | 0.23 | 94 | 1019.6 |
| 20260505100515 | 13 | 350 | 0.0 | 3.2 | 0.00 | 0.25 | 0.23 | 93 | 1019.6 |
| 20260505100219 | 13 | 350 | 0.0 | 3.2 | 0.00 | 0.25 | 0.23 | 93 | 1019.6 |
| 20260505100010 | 13 | 0 | 0.0 | 0.0 | 0.00 | 0.25 | 0.23 | 93 | 1019.6 |
| 20260505095719 | 13 | 0 | 0.0 | 0.0 | 0.00 | 0.25 | 0.23 | 93 | 1019.6 |
| 20260505095637 | 13 | 93 | 0.0 | 3.2 | 0.00 | 0.25 | 0.23 | 93 | 1019.6 |
| 20260505095220 | 13 | 111 | 1.6 | 4.8 | 0.00 | 0.25 | 0.23 | 93 | 1019.6 |
| 20260505094719 | 13 | 111 | 1.6 | 4.8 | 0.00 | 0.25 | 0.23 | 93 | 1019.6 |
| 20260505094459 | 13 | 97 | 3.2 | 4.8 | 0.00 | 0.25 | 0.23 | 93 | 1019.6 |
| 20260505094224 | 13 | 94 | 1.6 | 4.8 | 0.00 | 0.25 | 0.23 | 92 | 1020.0 |
| 20260505094220 | 13 | 97 | 3.2 | 4.8 | 0.00 | 0.25 | 0.23 | 93 | 1019.6 |
| 20260505093719 | 13 | 94 | 1.6 | 4.8 | 0.00 | 0.25 | 0.23 | 92 | 1020.0 |
| 20260505093424 | 13 | 100 | 3.2 | 9.7 | 0.00 | 0.25 | 0.23 | 92 | 1020.3 |
| 20260505093219 | 13 | 100 | 3.2 | 9.7 | 0.00 | 0.25 | 0.23 | 92 | 1020.3 |
| 20260505093046 | 13 | 105 | 4.8 | 9.7 | 0.00 | 0.25 | 0.23 | 92 | 1020.0 |
| 20260505092719 | 13 | 105 | 4.8 | 9.7 | 0.00 | 0.25 | 0.23 | 92 | 1020.0 |
| 20260505092517 | 13 | 123 | 3.2 | 9.7 | 0.00 | 0.25 | 0.23 | 93 | 1020.3 |
| 20260505092219 | 13 | 123 | 3.2 | 9.7 | 0.00 | 0.25 | 0.23 | 93 | 1020.3 |
| 20260505092152 | 13 | 89 | 3.2 | 9.7 | 0.00 | 0.25 | 0.23 | 93 | 1020.7 |
| 20260505091720 | 13 | 89 | 3.2 | 9.7 | 0.00 | 0.25 | 0.23 | 93 | 1020.7 |
| 20260505091422 | 13 | 76 | 4.8 | 9.7 | 0.00 | 0.25 | 0.23 | 93 | 1021.1 |
| 20260505091219 | 13 | 76 | 4.8 | 9.7 | 0.00 | 0.25 | 0.23 | 93 | 1021.1 |
| 20260505091100 | 13 | 96 | 4.8 | 9.7 | 0.00 | 0.25 | 0.23 | 93 | 1021.1 |
| 20260505090719 | 13 | 96 | 4.8 | 9.7 | 0.00 | 0.25 | 0.23 | 93 | 1021.1 |
| 20260505090507 | 13 | 128 | 3.2 | 9.7 | 0.00 | 0.25 | 0.23 | 93 | 1021.1 |
| 20260505090219 | 13 | 128 | 3.2 | 9.7 | 0.00 | 0.25 | 0.23 | 93 | 1021.1 |
| 20260505090018 | 13 | 135 | 3.2 | 8.0 | 0.00 | 0.25 | 0.23 | 93 | 1021.5 |
| 20260505085719 | 13 | 135 | 3.2 | 8.0 | 0.00 | 0.25 | 0.23 | 93 | 1021.5 |
| 20260505085527 | 13 | 129 | 4.8 | 8.0 | 0.00 | 0.25 | 0.23 | 93 | 1021.5 |
| 20260505085219 | 13 | 129 | 4.8 | 8.0 | 0.00 | 0.25 | 0.23 | 93 | 1021.5 |
| 20260505085112 | 13 | 126 | 4.8 | 8.0 | 0.00 | 0.25 | 0.23 | 93 | 1021.8 |
| 20260505084719 | 13 | 126 | 4.8 | 8.0 | 0.00 | 0.25 | 0.23 | 93 | 1021.8 |
| 20260505084224 | 13 | 153 | 1.6 | 3.2 | 0.00 | 0.25 | 0.23 | 92 | 1022.2 |
| 20260505084114 | 13 | 153 | 1.6 | 3.2 | 0.00 | 0.25 | 0.23 | 92 | 1022.2 |
| 20260505083719 | 13 | 153 | 1.6 | 3.2 | 0.00 | 0.25 | 0.23 | 92 | 1022.2 |
| 20260505083439 | 13 | 153 | 1.6 | 3.2 | 0.00 | 0.25 | 0.23 | 92 | 1022.2 |
| 20260505083219 | 13 | 153 | 1.6 | 3.2 | 0.00 | 0.25 | 0.23 | 92 | 1022.2 |
| 20260505082517 | 13 | 177 | 3.2 | 6.4 | 0.00 | 0.25 | 0.23 | 92 | 1022.6 |
| 20260505082219 | 13 | 177 | 3.2 | 6.4 | 0.00 | 0.25 | 0.23 | 92 | 1022.6 |
| 20260505082148 | 13 | 180 | 3.2 | 4.8 | 0.00 | 0.25 | 0.23 | 92 | 1022.6 |
| 20260505081719 | 13 | 180 | 3.2 | 4.8 | 0.00 | 0.25 | 0.23 | 92 | 1022.6 |
| 20260505081530 | 13 | 152 | 1.6 | 3.2 | 0.00 | 0.25 | 0.23 | 92 | 1022.6 |
| 20260505081219 | 13 | 152 | 1.6 | 3.2 | 0.00 | 0.25 | 0.23 | 92 | 1022.6 |
| 20260505080954 | 15 | 218 | 4.8 | 6.4 | 0.00 | 0.03 | 0.00 | 81 | 1022.9 |
| 20260505080719 | 15 | 218 | 4.8 | 6.4 | 0.00 | 0.03 | 0.00 | 81 | 1022.9 |
| 20260505080504 | 15 | 218 | 4.8 | 6.4 | 0.00 | 0.03 | 0.00 | 81 | 1022.9 |
| 20260505080237 | 15 | 218 | 4.8 | 6.4 | 0.00 | 0.03 | 0.00 | 81 | 1022.9 |
| 20260505080153 | 15 | 218 | 4.8 | 6.4 | 0.00 | 0.03 | 0.00 | 81 | 1022.9 |
| 20260505075719 | 15 | 218 | 4.8 | 6.4 | 0.00 | 0.03 | 0.00 | 81 | 1022.9 |
| 20260505075439 | 15 | 218 | 4.8 | 6.4 | 0.00 | 0.03 | 0.00 | 81 | 1022.9 |
| 20260505075219 | 15 | 218 | 4.8 | 6.4 | 0.00 | 0.03 | 0.00 | 81 | 1022.9 |
| 20260505075014 | 15 | 218 | 4.8 | 6.4 | 0.00 | 0.03 | 0.00 | 81 | 1022.9 |
| 20260505074719 | 15 | 218 | 4.8 | 6.4 | 0.00 | 0.03 | 0.00 | 81 | 1022.9 |
| 20260505074413 | 15 | 218 | 4.8 | 6.4 | 0.00 | 0.03 | 0.00 | 81 | 1022.9 |
| 20260505074220 | 15 | 218 | 4.8 | 6.4 | 0.00 | 0.03 | 0.00 | 81 | 1022.9 |
| 20260505073719 | 15 | 218 | 4.8 | 6.4 | 0.00 | 0.03 | 0.00 | 81 | 1022.9 |
| 20260505073418 | 15 | 218 | 4.8 | 6.4 | 0.00 | 0.03 | 0.00 | 81 | 1022.9 |
| 20260505073220 | 15 | 218 | 4.8 | 6.4 | 0.00 | 0.03 | 0.00 | 81 | 1022.9 |
| 20260505073020 | 15 | 218 | 4.8 | 6.4 | 0.00 | 0.03 | 0.00 | 81 | 1022.9 |
| 20260505072720 | 15 | 218 | 4.8 | 6.4 | 0.00 | 0.03 | 0.00 | 81 | 1022.9 |
| 20260505072520 | 15 | 218 | 4.8 | 6.4 | 0.00 | 0.03 | 0.00 | 81 | 1022.9 |
| 20260505072222 | 15 | 218 | 4.8 | 6.4 | 0.00 | 0.03 | 0.00 | 81 | 1022.9 |
| 20260505072059 | 15 | 218 | 4.8 | 6.4 | 0.00 | 0.03 | 0.00 | 81 | 1022.9 |
| 20260505071721 | 15 | 218 | 4.8 | 6.4 | 0.00 | 0.03 | 0.00 | 81 | 1022.9 |
| 20260505071518 | 15 | 218 | 4.8 | 6.4 | 0.00 | 0.03 | 0.00 | 81 | 1022.9 |
| 20260505071219 | 15 | 218 | 4.8 | 6.4 | 0.00 | 0.03 | 0.00 | 81 | 1022.9 |
| 20260505071019 | 15 | 218 | 4.8 | 6.4 | 0.00 | 0.03 | 0.00 | 81 | 1022.9 |
| 20260505070719 | 15 | 218 | 4.8 | 6.4 | 0.00 | 0.03 | 0.00 | 81 | 1022.9 |
| 20260505070444 | 15 | 221 | 4.8 | 14.5 | 0.00 | 0.03 | 0.00 | 81 | 1022.6 |
| 20260505070219 | 15 | 221 | 4.8 | 14.5 | 0.00 | 0.03 | 0.00 | 81 | 1022.6 |
| 20260505070002 | 15 | 247 | 4.8 | 14.5 | 0.00 | 0.03 | 0.03 | 81 | 1022.6 |
| 20260505065719 | 15 | 247 | 4.8 | 14.5 | 0.00 | 0.03 | 0.03 | 81 | 1022.6 |
| 20260505065436 | 15 | 279 | 4.8 | 6.4 | 0.00 | 0.03 | 0.03 | 82 | 1022.6 |
| 20260505065219 | 15 | 279 | 4.8 | 6.4 | 0.00 | 0.03 | 0.03 | 82 | 1022.6 |
| 20260505064719 | 15 | 279 | 4.8 | 6.4 | 0.00 | 0.03 | 0.03 | 82 | 1022.6 |
| 20260505064415 | 15 | 279 | 4.8 | 6.4 | 0.03 | 0.03 | 0.03 | 82 | 1022.6 |
| 20260505064222 | 15 | 279 | 4.8 | 6.4 | 0.03 | 0.03 | 0.03 | 82 | 1022.6 |
| 20260505064116 | 17 | 5 | 1.6 | 3.2 | 0.00 | 0.00 | 0.00 | 55 | 1022.2 |
| 20260505063719 | 17 | 5 | 1.6 | 3.2 | 0.00 | 0.00 | 0.00 | 55 | 1022.2 |
| 20260505063219 | 17 | 5 | 1.6 | 3.2 | 0.00 | 0.00 | 0.00 | 55 | 1022.2 |
| 20260505063129 | 17 | 5 | 1.6 | 3.2 | 0.00 | 0.00 | 0.00 | 55 | 1022.2 |
| 20260505062719 | 17 | 5 | 1.6 | 3.2 | 0.00 | 0.00 | 0.00 | 55 | 1022.2 |
| 20260505062510 | 17 | 5 | 1.6 | 3.2 | 0.00 | 0.00 | 0.00 | 55 | 1022.2 |
| 20260505062219 | 17 | 5 | 1.6 | 3.2 | 0.00 | 0.00 | 0.00 | 55 | 1022.2 |
| 20260505062115 | 17 | 5 | 1.6 | 3.2 | 0.00 | 0.00 | 0.00 | 55 | 1022.2 |
| 20260505061719 | 17 | 5 | 1.6 | 3.2 | 0.00 | 0.00 | 0.00 | 55 | 1022.2 |
| 20260505061551 | 17 | 5 | 1.6 | 3.2 | 0.00 | 0.00 | 0.00 | 55 | 1022.2 |
| 20260505061219 | 17 | 5 | 1.6 | 3.2 | 0.00 | 0.00 | 0.00 | 55 | 1022.2 |
| 20260505061026 | 17 | 5 | 1.6 | 3.2 | 0.00 | 0.00 | 0.00 | 55 | 1022.2 |
| 20260505060718 | 17 | 5 | 1.6 | 3.2 | 0.00 | 0.00 | 0.00 | 55 | 1022.2 |
| 20260505060518 | 17 | 5 | 1.6 | 3.2 | 0.00 | 0.00 | 0.00 | 55 | 1022.2 |
| 20260505060219 | 17 | 5 | 1.6 | 3.2 | 0.00 | 0.00 | 0.00 | 55 | 1022.2 |
| 20260505055954 | 17 | 5 | 1.6 | 3.2 | 0.00 | 0.00 | 0.00 | 55 | 1022.2 |
| 20260505055720 | 17 | 5 | 1.6 | 3.2 | 0.00 | 0.00 | 0.00 | 55 | 1022.2 |
| 20260505055544 | 17 | 5 | 1.6 | 3.2 | 0.00 | 0.00 | 0.00 | 55 | 1022.2 |
| 20260505055218 | 17 | 5 | 1.6 | 3.2 | 0.00 | 0.00 | 0.00 | 55 | 1022.2 |
| 20260505055034 | 17 | 5 | 1.6 | 3.2 | 0.00 | 0.00 | 0.00 | 55 | 1022.2 |
| 20260505054719 | 17 | 5 | 1.6 | 3.2 | 0.00 | 0.00 | 0.00 | 55 | 1022.2 |
| 20260505054241 | 17 | 343 | 1.6 | 3.2 | 0.00 | 0.00 | 0.00 | 55 | 1022.2 |
| 20260505054226 | 17 | 5 | 1.6 | 3.2 | 0.00 | 0.00 | 0.00 | 55 | 1022.2 |
| 20260505053718 | 17 | 343 | 1.6 | 3.2 | 0.00 | 0.00 | 0.00 | 55 | 1022.2 |
| 20260505053439 | 17 | 332 | 1.6 | 3.2 | 0.00 | 0.00 | 0.00 | 55 | 1022.2 |
| 20260505053218 | 17 | 332 | 1.6 | 3.2 | 0.00 | 0.00 | 0.00 | 55 | 1022.2 |
| 20260505053004 | 17 | 349 | 1.6 | 3.2 | 0.00 | 0.00 | 0.00 | 54 | 1021.8 |
| 20260505052719 | 17 | 349 | 1.6 | 3.2 | 0.00 | 0.00 | 0.00 | 54 | 1021.8 |
| 20260505052536 | 17 | 349 | 1.6 | 3.2 | 0.00 | 0.00 | 0.00 | 51 | 1022.2 |
| 20260505052219 | 17 | 349 | 1.6 | 3.2 | 0.00 | 0.00 | 0.00 | 51 | 1022.2 |
| 20260505052037 | 17 | 348 | 1.6 | 3.2 | 0.00 | 0.00 | 0.00 | 51 | 1022.6 |
| 20260505051719 | 17 | 348 | 1.6 | 3.2 | 0.00 | 0.00 | 0.00 | 51 | 1022.6 |
| 20260505051458 | 17 | 0 | 0.0 | 0.0 | 0.00 | 0.00 | 0.00 | 50 | 1022.6 |
| 20260505051219 | 17 | 0 | 0.0 | 0.0 | 0.00 | 0.00 | 0.00 | 50 | 1022.6 |
| 20260505051129 | 17 | 0 | 0.0 | 0.0 | 0.00 | 0.00 | 0.00 | 50 | 1022.6 |
| 20260505050718 | 17 | 0 | 0.0 | 0.0 | 0.00 | 0.00 | 0.00 | 50 | 1022.6 |
| 20260505050454 | 17 | 74 | 0.0 | 3.2 | 0.00 | 0.00 | 0.00 | 50 | 1022.6 |
| 20260505050219 | 17 | 74 | 0.0 | 3.2 | 0.00 | 0.00 | 0.00 | 50 | 1022.6 |
| 20260505041718 | 16 | 324 | 1.6 | 4.8 | 0.00 | 0.00 | 0.00 | 53 | 1021.8 |
| 20260505041543 | 16 | 329 | 1.6 | 6.4 | 0.00 | 0.00 | 0.00 | 53 | 1021.8 |
| 20260505041218 | 16 | 329 | 1.6 | 6.4 | 0.00 | 0.00 | 0.00 | 53 | 1021.8 |
| 20260505041041 | 17 | 21 | 1.6 | 6.4 | 0.00 | 0.00 | 0.00 | 52 | 1021.8 |
| 20260505040718 | 17 | 21 | 1.6 | 6.4 | 0.00 | 0.00 | 0.00 | 52 | 1021.8 |
| 20260505040519 | 17 | 309 | 1.6 | 6.4 | 0.00 | 0.00 | 0.00 | 52 | 1022.2 |
| 20260505040218 | 17 | 309 | 1.6 | 6.4 | 0.00 | 0.00 | 0.00 | 52 | 1022.2 |
| 20260505035936 | 18 | 300 | 3.2 | 6.4 | 0.00 | 0.00 | 0.00 | 47 | 1021.8 |
| 20260505035718 | 18 | 300 | 3.2 | 6.4 | 0.00 | 0.00 | 0.00 | 47 | 1021.8 |
| 20260505035514 | 17 | 49 | 4.8 | 6.4 | 0.00 | 0.00 | 0.00 | 49 | 1021.8 |
| 20260505035218 | 17 | 49 | 4.8 | 6.4 | 0.00 | 0.00 | 0.00 | 49 | 1021.8 |
| 20260505035146 | 16 | 48 | 4.8 | 9.7 | 0.00 | 0.00 | 0.00 | 52 | 1021.8 |
| 20260505034718 | 16 | 48 | 4.8 | 9.7 | 0.00 | 0.00 | 0.00 | 52 | 1021.8 |
| 20260505034449 | 16 | 34 | 4.8 | 9.7 | 0.00 | 0.00 | 0.00 | 52 | 1021.5 |
| 20260505034221 | 16 | 34 | 4.8 | 9.7 | 0.00 | 0.00 | 0.00 | 52 | 1021.5 |